Weather in Bukhtal

Russia / Tyumen Oblast     57°30′20″N   65°09′49″E
temp.,
°C
wind,
m/s
gust,
m/s
humid.,
%
clouds,
%
prec.,
mm/h
press.,
hPa
HPBL,
m
8 may, sat
sat823:00+13sw265332 0.0 101899
02:00+11sw385820 0.0 1019159
05:00+10wsw236062 0.0 101944
08:00+16sw24425 0.0 1019276
11:00+21ssw23299 0.0 10181418
14:00+23sse222345 0.0 10172691
17:00+23se222375 0.0 10162839
20:00+18ese2236100 0.0 101613
9 may, sun
sun923:00+15wsw1144100 0.0 101717
02:00+13ne2354100 0.0 101750
05:00+13ene246299 0.0 101773
08:00+17e2447100 0.0 1018238
11:00+22ese352889 0.0 10181698
14:00+24ese362293 0.0 10173268
17:00+23e4523100 0.0 10173149
20:00+18ese4948100 0.1 1020616
10 may, mon
mon1023:00+15ne236481 0.6 102041
02:00+15e396478 0.0 1021263
05:00+13e3864100 0.0 1023216
08:00+16ese354642 0.0 1024478
11:00+19e3534100 0.0 10241402
14:00+21ene3429100 0.0 10242083
17:00+21ene2327100 0.0 10231954
20:00+17n114042 0.0 102311
11 may, tue
tue1123:00+14wnw00460 0.0 102311
02:00+12ene00514 0.0 102210
05:00+11ssw1155100 0.0 102210
08:00+16ssw2343100 0.0 1022213
11:00+19w5649100 0.1 10211170
14:00+16w5868100 0.2 10211034
17:00+12nw5107859 0.9 1023777
20:00+10nnw5117866 0.0 1024767
12 may, wed
wed1223:00+9nnw597198 0.0 10241022
02:00+6nnw412792 0.0 1024752
05:00+5nnw413705 0.0 1024613
08:00+9nnw5124893 0.0 1025769
11:00+14n583636 0.0 10241498
14:00+16n4631100 0.0 10232026
17:00+17nnw343111 0.0 10232136
20:00+14nnw244631 0.0 102376